Location: Castillon
(43.0896°N, 0.2156°E)
Time: 20:10:38
(UTC+00:00)

Thor Agena Rocket - Pass Details

Date: 16 June 2021
Orbit: 759 x 808 km, 99.0° (Epoch: 31 July)

Event Time Altitude Azimuth Distance (km) Brightness Sun altitude
Rises 23:28:19 0° 19° (NNE) 3,322 7.8 -23.1°
Reaches altitude 10° 23:30:46 10° 26° (NNE) 2,381 6.8 -23.2°
Maximum altitude 23:35:50 47° 100° (E) 1,045 4.0 -23.3°
Enters shadow 23:36:28 45° 122° (ESE) 1,077 3.9 -23.3°
